This demonstration page uses our WeatherBlox Daily Observations layout. Learn more.

Left ArrowRight Arrow

47.50024, -111.30081

Hourly Observations for May 26, 2021

Temp ( °F °C ) Dew Point ( °F °C ) Humidity (%) Winds ( mph kmh ) Pressure ( in mb ) Visibility ( mi km ) Precip ( " mm )
12:53 am 00:53 Cloudy with Light Rain 48 8.9 45 7.2 89 89 E 7 11 30.07 1018 7 11 0.04 1.02
1:53 am 01:53 Cloudy with Light Rain 48 8.9 45 7.2 89 89 ENE 9 15 30.04 1017 8 13 0.03 0.76
2:53 am 02:53 Cloudy with Light Rain 47 8.3 45 7.2 93 93 ENE 6 9 30.04 1017 10 16 0.04 1.02
3:53 am 03:53 Cloudy with Light Rain 47 8.3 45 7.2 93 93 ENE 7 11 30.02 1017 7 11 0.06 1.52
4:53 am 04:53 Cloudy with Light Rain 46 7.8 44 6.7 93 93 NE 7 11 30.01 1016 5 8 0.04 1.02
5:17 am 05:17 Cloudy with Light Rain 46 7.8 44 6.7 93 93 NE 3 6 30.02 1017 7 11 0.01 0.25
5:47 am 05:47 Cloudy with Rain 45 7 45 7 100 100 NE 6 9 30.03 1017 1 1 0.05 1.27
5:53 am 05:53 Cloudy with Rain 45 7.2 44 6.7 97 97 ENE 7 11 30.03 1017 1 1 0.07 1.78
6:04 am 06:04 Cloudy with Rain 46 7.8 44 6.7 93 93 NE 7 11 30.02 1017 1 1 0.02 0.51
6:15 am 06:15 Cloudy with Rain 45 7.2 44 6.7 97 97 NE 6 9 30.03 1017 1 1 0.06 1.52
6:36 am 06:36 Cloudy with Rain 46 7.8 44 6.7 93 93 ENE 8 13 30.02 1017 0 0 0.11 2.79
6:53 am 06:53 Cloudy with Rain 46 7.8 44 6.7 93 93 E 7 11 30.02 1017 0 0 0.17 4.32
7:53 am 07:53 Cloudy with Rain 45 7.2 44 6.7 97 97 ENE 10 17 30.04 1017 1 2 0.19 4.83
8:16 am 08:16 Cloudy with Rain 45 7.2 44 6.7 97 97 NE 8 13 30.03 1017 1 2 0.09 2.29
8:19 am 08:19 Cloudy with Rain 45 7.2 44 6.7 97 97 NE 8 13 30.03 1017 3 4 0.11 2.79
8:33 am 08:33 Cloudy with Rain 45 7.2 43 6.1 93 93 NE 10 17 30.04 1017 3 5 0.14 3.56
8:53 am 08:53 Cloudy with Rain 45 7.2 43 6.1 93 93 NE 12 19 30.05 1018 3 5 0.19 4.83
9:43 am 09:43 Cloudy with Light Rain 45 7.2 43 6.1 93 93 NE 12 19 30.04 1017 3 5 0.09 2.29
9:53 am 09:53 Cloudy with Light Rain 45 7.2 43 6.1 93 93 ENE 13 20 30.06 1018 3 5 0.10 2.54
10:53 am 10:53 Cloudy with Light Rain 45 7.2 43 6.1 93 93 ENE 8 13 30.07 1018 8 13 0.04 1.02
11:04 am 11:04 Cloudy with Light Rain 46 7.8 44 6.7 93 93 ENE 10 17 30.05 1018 10 16 0.00 0.00
11:33 am 11:33 Cloudy with Light Rain 46 7.8 44 6.7 93 93 E 5 7 30.06 1018 10 16 0.00 0.00
11:43 am 11:43 Cloudy with Light Rain 46 7.8 43 6.1 89 89 ENE 10 17 30.06 1018 10 16 0.01 0.25
11:53 am 11:53 Cloudy with Light Rain 46 7.8 44 6.7 93 93 NE 9 15 30.09 1019 9 14 0.01 0.25
12:15 pm 12:15 Cloudy with Light Rain 46 7.8 43 6.1 89 89 ENE 12 19 30.07 1018 9 14 0.01 0.25
12:33 pm 12:33 Cloudy with Light Rain 46 7.8 43 6.1 89 89 ENE 12 19 30.07 1018 8 13 0.02 0.51
12:53 pm 12:53 Cloudy with Light Rain 46 7.8 43 6.1 89 89 NE 12 19 30.11 1020 9 14 0.03 0.76
1:53 pm 13:53 Cloudy with Light Rain 46 7.8 43 6.1 89 89 NNE 13 20 30.13 1020 10 16 0.01 0.25
2:53 pm 14:53 Cloudy 45 7.2 43 6.1 93 93 NE 10 17 30.15 1021 10 16 0.00 0.00
3:24 pm 15:24 Cloudy 45 7.2 43 6.1 93 93 NNE 7 11 30.12 1020 10 16 0.00 0.00
3:53 pm 15:53 Cloudy 45 7.2 42 5.6 90 90 N 8 13 30.16 1021 10 16 0.00 0.00
4:38 pm 16:38 Cloudy 46 7.8 42 5.6 86 86 NNW 7 11 30.13 1020 10 16 0.00 0.00
4:51 pm 16:51 Cloudy 46 8 43 6 87 87 NNW 7 11 30.12 1020 10 16 0.00 0.00
4:53 pm 16:53 Cloudy 46 7.8 42 5.6 86 86 NNW 7 11 30.17 1022 10 16 0.00 0.00
5:18 pm 17:18 Cloudy 48 8.9 43 6.1 83 83 NNW 6 9 30.11 1020 10 16 0.00 0.00
5:29 pm 17:29 Cloudy 48 8.9 42 5.6 80 80 NNW 6 9 30.11 1020 10 16 0.00 0.00
5:53 pm 17:53 Cloudy 48 8.9 42 5.6 80 80 Calm 30.17 1022 10 16 0.00 0.00
6:37 pm 18:37 Mostly Cloudy 49 9.4 42 5.6 77 77 NNW 5 7 30.11 1020 10 16 0.00 0.00
6:48 pm 18:48 Cloudy 48 9 41 5 76 76 Calm 30.12 1020 10 16 0.00 0.00
6:53 pm 18:53 Cloudy 49 9.4 41 5 74 74 Calm 30.16 1022 10 16 0.00 0.00
7:01 pm 19:01 Cloudy 49 9.4 42 5.6 77 77 Calm 30.11 1020 10 16 0.00 0.00
7:53 pm 19:53 Cloudy 48 8.9 42 5.6 80 80 SSW 6 9 30.17 1022 10 16 0.00 0.00
8:26 pm 20:26 Partly Cloudy 45 7.2 41 5 86 86 S 6 9 30.15 1021 10 16 0.00 0.00
8:53 pm 20:53 Sunny 43 6.1 40 4.4 89 89 SSW 6 9 30.19 1022 10 16 0.00 0.00
9:53 pm 21:53 Clear 42 5.6 39 3.9 89 89 SSE 5 7 30.18 1022 10 16 0.00 0.00
10:53 pm 22:53 Clear 41 5 38 3.3 89 89 SSE 7 11 30.20 1023 10 16 0.00 0.00
11:53 pm 23:53 Clear 41 5 38 3.3 89 89 SE 7 11 30.18 1022 10 16 0.00 0.00

Powered by AerisWeather